| time (UTC) | temp F | wind direction | speed knots | gust knots | rain 1hr in | rain 24hr in | rain mn in | humidity % | barometer mb |
| 20260510130513 | 63 | 307 | 0.0 | 2.6 | 0.00 | 0.00 | 0.00 | 57 | 1016.6 |
| 20260510130012 | 61 | 45 | 0.0 | 0.9 | 0.00 | 0.00 | 0.00 | 60 | 1016.7 |
| 20260510125513 | 60 | 46 | 0.0 | 0.9 | 0.00 | 0.00 | 0.00 | 63 | 1016.6 |
| 20260510125008 | 58 | 46 | 0.0 | 0.0 | 0.00 | 0.00 | 0.00 | 68 | 1016.6 |
| 20260510124508 | 58 | 46 | 0.0 | 0.9 | 0.00 | 0.00 | 0.00 | 68 | 1016.6 |
| 20260510124006 | 57 | 46 | 0.0 | 0.9 | 0.00 | 0.00 | 0.00 | 69 | 1016.5 |
| 20260510123505 | 57 | 98 | 0.0 | 0.9 | 0.00 | 0.00 | 0.00 | 75 | 1016.5 |
| 20260510123006 | 56 | 98 | 0.0 | 0.9 | 0.00 | 0.00 | 0.00 | 74 | 1016.5 |
| 20260510122501 | 55 | 98 | 0.0 | 0.9 | 0.00 | 0.00 | 0.00 | 74 | 1016.5 |
| 20260510122100 | 55 | 98 | 0.0 | 0.0 | 0.00 | 0.00 | 0.00 | 76 | 1016.6 |
| 20260510121559 | 53 | 98 | 0.0 | 0.0 | 0.00 | 0.00 | 0.00 | 82 | 1016.5 |
| 20260510121058 | 51 | 98 | 0.0 | 0.0 | 0.00 | 0.00 | 0.00 | 86 | 1016.5 |
| 20260510120557 | 50 | 98 | 0.0 | 0.0 | 0.00 | 0.00 | 0.00 | 86 | 1016.4 |
| 20260510120054 | 49 | 98 | 0.0 | 0.0 | 0.00 | 0.00 | 0.00 | 87 | 1016.3 |
| 20260510115554 | 49 | 98 | 0.0 | 1.7 | 0.00 | 0.00 | 0.00 | 90 | 1016.2 |
| 20260510115054 | 47 | 98 | 0.0 | 1.7 | 0.00 | 0.00 | 0.00 | 91 | 1016.1 |
| 20260510114655 | 46 | 127 | 0.0 | 0.9 | 0.00 | 0.00 | 0.00 | 93 | 1016.2 |
| 20260510114053 | 45 | 331 | 0.0 | 0.9 | 0.00 | 0.00 | 0.00 | 92 | 1016.3 |
| 20260510113551 | 45 | 332 | 0.0 | 0.9 | 0.00 | 0.00 | 0.00 | 91 | 1016.0 |
| 20260510113051 | 45 | 332 | 0.0 | 0.9 | 0.00 | 0.00 | 0.00 | 91 | 1015.7 |
| 20260510112549 | 45 | 332 | 0.0 | 0.9 | 0.00 | 0.00 | 0.00 | 92 | 1015.5 |
| 20260510112049 | 44 | 332 | 0.0 | 0.9 | 0.00 | 0.00 | 0.00 | 92 | 1015.5 |
| 20260510111547 | 44 | 332 | 0.0 | 0.9 | 0.00 | 0.00 | 0.00 | 92 | 1015.5 |
| 20260510111046 | 44 | 332 | 0.0 | 0.9 | 0.00 | 0.00 | 0.00 | 90 | 1015.3 |
| 20260510110545 | 44 | 332 | 0.0 | 0.9 | 0.00 | 0.00 | 0.00 | 89 | 1015.2 |
| 20260510110043 | 45 | 332 | 0.0 | 0.9 | 0.00 | 0.00 | 0.00 | 88 | 1015.0 |
| 20260510105543 | 46 | 332 | 0.0 | 0.0 | 0.00 | 0.00 | 0.00 | 87 | 1014.9 |
| 20260510105042 | 46 | 332 | 0.0 | 0.9 | 0.00 | 0.00 | 0.00 | 86 | 1015.0 |
| 20260510104542 | 47 | 332 | 0.0 | 0.9 | 0.00 | 0.00 | 0.00 | 85 | 1014.8 |
| 20260510104040 | 47 | 332 | 0.0 | 0.9 | 0.00 | 0.00 | 0.00 | 85 | 1014.8 |
| 20260510103543 | 47 | 328 | 0.0 | 0.9 | 0.00 | 0.00 | 0.00 | 85 | 1014.8 |
| 20260510103046 | 47 | 328 | 0.0 | 1.7 | 0.00 | 0.00 | 0.00 | 86 | 1014.8 |
| 20260510102540 | 47 | 328 | 0.0 | 1.7 | 0.00 | 0.00 | 0.00 | 86 | 1014.7 |
| 20260510102039 | 47 | 314 | 0.0 | 2.6 | 0.00 | 0.00 | 0.00 | 87 | 1014.7 |
| 20260510101539 | 47 | 331 | 0.0 | 1.7 | 0.00 | 0.00 | 0.00 | 89 | 1014.6 |
| 20260510101037 | 47 | 338 | 0.9 | 1.7 | 0.00 | 0.00 | 0.00 | 90 | 1014.6 |
| 20260510100537 | 47 | 354 | 0.0 | 1.7 | 0.00 | 0.00 | 0.00 | 91 | 1014.4 |
| 20260510100039 | 47 | 354 | 0.9 | 2.6 | 0.00 | 0.00 | 0.00 | 93 | 1014.3 |
| 20260510095538 | 46 | 340 | 0.9 | 2.6 | 0.00 | 0.00 | 0.00 | 94 | 1014.3 |
| 20260510095036 | 46 | 334 | 0.0 | 2.6 | 0.00 | 0.00 | 0.00 | 94 | 1014.2 |
| 20260510094541 | 46 | 351 | 0.9 | 1.7 | 0.00 | 0.00 | 0.00 | 94 | 1014.1 |
| 20260510094034 | 46 | 351 | 0.9 | 1.7 | 0.00 | 0.00 | 0.00 | 94 | 1014.2 |
| 20260510093534 | 45 | 351 | 0.0 | 1.7 | 0.00 | 0.00 | 0.00 | 94 | 1014.1 |
| 20260510093033 | 46 | 351 | 0.0 | 1.7 | 0.00 | 0.00 | 0.00 | 92 | 1014.1 |
| 20260510092533 | 46 | 351 | 0.0 | 1.7 | 0.00 | 0.00 | 0.00 | 92 | 1014.0 |
| 20260510092031 | 47 | 351 | 0.0 | 1.7 | 0.00 | 0.00 | 0.00 | 92 | 1014.0 |
| 20260510091532 | 48 | 351 | 0.0 | 1.7 | 0.00 | 0.00 | 0.00 | 93 | 1014.0 |
| 20260510091033 | 48 | 15 | 0.9 | 1.7 | 0.00 | 0.00 | 0.00 | 94 | 1013.9 |
| 20260510090531 | 48 | 15 | 0.0 | 0.9 | 0.00 | 0.00 | 0.00 | 94 | 1013.8 |
| 20260510090032 | 47 | 15 | 0.0 | 1.7 | 0.00 | 0.00 | 0.00 | 95 | 1013.8 |
| 20260510085530 | 47 | 15 | 0.0 | 1.7 | 0.00 | 0.00 | 0.00 | 95 | 1013.7 |
| 20260510085029 | 47 | 15 | 0.0 | 0.9 | 0.00 | 0.00 | 0.00 | 95 | 1013.7 |
| 20260510084529 | 46 | 15 | 0.0 | 0.9 | 0.00 | 0.00 | 0.00 | 95 | 1013.7 |
| 20260510084031 | 46 | 15 | 0.0 | 0.9 | 0.00 | 0.00 | 0.00 | 94 | 1013.7 |
| 20260510083529 | 46 | 15 | 0.0 | 0.9 | 0.00 | 0.00 | 0.00 | 94 | 1013.6 |
| 20260510083028 | 46 | 329 | 0.0 | 0.9 | 0.00 | 0.00 | 0.00 | 94 | 1013.6 |
| 20260510082527 | 46 | 360 | 0.0 | 0.9 | 0.00 | 0.00 | 0.00 | 94 | 1013.5 |
| 20260510082031 | 46 | 96 | 0.0 | 0.9 | 0.00 | 0.00 | 0.00 | 94 | 1013.5 |
| 20260510081536 | 46 | 96 | 0.0 | 0.9 | 0.00 | 0.00 | 0.00 | 94 | 1013.4 |
| 20260510081027 | 46 | 96 | 0.0 | 0.9 | 0.00 | 0.00 | 0.00 | 93 | 1013.4 |
| 20260510080527 | 46 | 96 | 0.0 | 1.7 | 0.00 | 0.00 | 0.00 | 92 | 1013.4 |
| 20260510080030 | 47 | 96 | 0.0 | 1.7 | 0.00 | 0.00 | 0.00 | 91 | 1013.4 |
| 20260510075526 | 47 | 112 | 0.0 | 2.6 | 0.00 | 0.00 | 0.00 | 91 | 1013.2 |
| 20260510075024 | 48 | 345 | 0.0 | 5.2 | 0.00 | 0.00 | 0.00 | 91 | 1013.2 |
| 20260510074524 | 48 | 340 | 1.7 | 5.2 | 0.00 | 0.00 | 0.00 | 93 | 1013.1 |
| 20260510074023 | 48 | 11 | 1.7 | 4.3 | 0.00 | 0.00 | 0.00 | 93 | 1013.0 |
| 20260510073523 | 48 | 329 | 2.6 | 4.3 | 0.00 | 0.00 | 0.00 | 94 | 1013.0 |
| 20260510073023 | 47 | 339 | 1.7 | 3.5 | 0.00 | 0.00 | 0.00 | 95 | 1013.0 |
| 20260510072522 | 46 | 343 | 1.7 | 2.6 | 0.00 | 0.00 | 0.00 | 93 | 1013.0 |
| 20260510072021 | 47 | 329 | 0.0 | 1.7 | 0.00 | 0.00 | 0.00 | 93 | 1013.1 |
| 20260510071520 | 47 | 112 | 0.0 | 0.9 | 0.00 | 0.00 | 0.00 | 93 | 1013.1 |
| 20260510071019 | 47 | 112 | 0.0 | 0.9 | 0.00 | 0.00 | 0.00 | 93 | 1013.2 |
| 20260510070519 | 47 | 111 | 0.0 | 0.9 | 0.00 | 0.00 | 0.00 | 93 | 1013.0 |
| 20260510070021 | 47 | 112 | 0.0 | 0.9 | 0.00 | 0.00 | 0.00 | 93 | 1013.1 |
| 20260510065518 | 47 | 111 | 0.0 | 0.0 | 0.00 | 0.00 | 0.00 | 92 | 1013.2 |
| 20260510065018 | 48 | 111 | 0.0 | 0.0 | 0.00 | 0.00 | 0.00 | 92 | 1013.1 |
| 20260510064520 | 48 | 112 | 0.0 | 0.9 | 0.00 | 0.00 | 0.00 | 93 | 1013.1 |
| 20260510064018 | 48 | 112 | 0.0 | 0.9 | 0.00 | 0.00 | 0.00 | 93 | 1013.1 |
| 20260510063517 | 47 | 113 | 0.0 | 1.7 | 0.00 | 0.00 | 0.00 | 93 | 1013.1 |
| 20260510063020 | 47 | 83 | 0.9 | 1.7 | 0.00 | 0.00 | 0.00 | 92 | 1013.2 |
| 20260510062516 | 47 | 127 | 0.9 | 1.7 | 0.00 | 0.00 | 0.00 | 91 | 1013.2 |
| 20260510062021 | 48 | 354 | 0.0 | 0.9 | 0.00 | 0.00 | 0.00 | 90 | 1013.2 |
| 20260510061523 | 48 | 354 | 0.0 | 1.7 | 0.00 | 0.00 | 0.00 | 91 | 1013.2 |
| 20260510061017 | 48 | 354 | 0.9 | 1.7 | 0.00 | 0.00 | 0.00 | 91 | 1013.2 |
| 20260510060520 | 49 | 355 | 0.0 | 0.9 | 0.00 | 0.00 | 0.00 | 88 | 1013.4 |
| 20260510060015 | 49 | 355 | 0.0 | 1.7 | 0.00 | 0.00 | 0.00 | 88 | 1013.4 |
| 20260510055515 | 50 | 355 | 0.0 | 1.7 | 0.00 | 0.00 | 0.00 | 89 | 1013.4 |
| 20260510055012 | 50 | 355 | 0.9 | 1.7 | 0.00 | 0.00 | 0.00 | 91 | 1013.5 |
| 20260510054512 | 49 | 1 | 0.9 | 1.7 | 0.00 | 0.00 | 0.00 | 91 | 1013.5 |
| 20260510054012 | 48 | 356 | 0.9 | 1.7 | 0.00 | 0.00 | 0.00 | 92 | 1013.4 |
| 20260510053510 | 48 | 352 | 0.0 | 1.7 | 0.00 | 0.00 | 0.00 | 92 | 1013.4 |
| 20260510053010 | 47 | 352 | 0.0 | 0.0 | 0.00 | 0.00 | 0.00 | 91 | 1013.3 |
| 20260510052509 | 47 | 352 | 0.0 | 0.9 | 0.00 | 0.00 | 0.00 | 91 | 1013.4 |
| 20260510052008 | 48 | 352 | 0.0 | 0.9 | 0.00 | 0.00 | 0.00 | 90 | 1013.3 |
| 20260510051516 | 48 | 352 | 0.0 | 0.9 | 0.00 | 0.00 | 0.00 | 90 | 1013.3 |
| 20260510051007 | 48 | 352 | 0.0 | 0.9 | 0.00 | 0.00 | 0.00 | 90 | 1013.3 |
| 20260510050607 | 48 | 352 | 0.0 | 2.6 | 0.00 | 0.00 | 0.00 | 90 | 1013.3 |
| 20260510050005 | 48 | 343 | 0.9 | 2.6 | 0.00 | 0.00 | 0.00 | 90 | 1013.4 |
| 20260510045508 | 48 | 212 | 0.0 | 0.9 | 0.00 | 0.00 | 0.00 | 90 | 1013.3 |
| 20260510045005 | 48 | 212 | 0.0 | 0.9 | 0.00 | 0.00 | 0.00 | 90 | 1013.2 |
| 20260510044509 | 48 | 212 | 0.0 | 0.0 | 0.00 | 0.00 | 0.00 | 90 | 1013.2 |
| 20260510044005 | 48 | 212 | 0.0 | 0.0 | 0.00 | 0.00 | 0.00 | 90 | 1013.3 |
| 20260510043503 | 48 | 212 | 0.0 | 0.9 | 0.00 | 0.00 | 0.00 | 89 | 1013.2 |
| 20260510043006 | 49 | 212 | 0.0 | 0.9 | 0.00 | 0.00 | 0.00 | 89 | 1013.2 |
| 20260510042501 | 49 | 212 | 0.0 | 0.9 | 0.00 | 0.00 | 0.00 | 89 | 1013.2 |
| 20260510042002 | 49 | 212 | 0.0 | 0.9 | 0.00 | 0.00 | 0.00 | 88 | 1013.3 |
| 20260510041637 | 49 | 212 | 0.0 | 0.9 | 0.00 | 0.00 | 0.00 | 88 | 1013.2 |
| 20260510041102 | 49 | 212 | 0.0 | 0.9 | 0.00 | 0.00 | 0.00 | 87 | 1013.1 |
| 20260510040558 | 49 | 116 | 0.0 | 0.9 | 0.00 | 0.00 | 0.00 | 87 | 1013.1 |
| 20260510040058 | 50 | 116 | 0.0 | 0.9 | 0.00 | 0.00 | 0.00 | 86 | 1013.1 |
| 20260510035557 | 50 | 116 | 0.0 | 0.9 | 0.00 | 0.00 | 0.00 | 86 | 1013.2 |
| 20260510035058 | 50 | 116 | 0.0 | 0.9 | 0.00 | 0.00 | 0.00 | 85 | 1013.1 |
| 20260510034559 | 51 | 116 | 0.0 | 0.9 | 0.00 | 0.00 | 0.00 | 85 | 1013.2 |
| 20260510034059 | 51 | 116 | 0.0 | 0.9 | 0.00 | 0.00 | 0.00 | 84 | 1013.2 |
| 20260510033556 | 51 | 116 | 0.0 | 0.9 | 0.00 | 0.00 | 0.00 | 83 | 1013.3 |
| 20260510033116 | 51 | 116 | 0.0 | 0.9 | 0.00 | 0.00 | 0.00 | 83 | 1013.2 |
| 20260510032556 | 51 | 116 | 0.0 | 1.7 | 0.00 | 0.00 | 0.00 | 84 | 1013.2 |
| 20260510032056 | 51 | 96 | 0.0 | 0.9 | 0.00 | 0.00 | 0.00 | 83 | 1013.1 |
| 20260510031557 | 51 | 96 | 0.0 | 1.7 | 0.00 | 0.00 | 0.00 | 83 | 1013.2 |
| 20260510031055 | 51 | 96 | 0.9 | 1.7 | 0.00 | 0.00 | 0.00 | 83 | 1013.2 |
| 20260510030558 | 52 | 158 | 0.0 | 0.9 | 0.00 | 0.00 | 0.00 | 81 | 1013.2 |
| 20260510030056 | 52 | 96 | 0.0 | 1.7 | 0.00 | 0.00 | 0.00 | 82 | 1013.1 |
| 20260510025556 | 51 | 96 | 0.0 | 0.9 | 0.00 | 0.00 | 0.00 | 83 | 1013.2 |
| 20260510025057 | 52 | 110 | 0.0 | 1.7 | 0.00 | 0.00 | 0.00 | 82 | 1013.2 |
| 20260510024609 | 52 | 117 | 0.0 | 1.7 | 0.00 | 0.00 | 0.00 | 82 | 1013.2 |
| 20260510024054 | 52 | 127 | 0.0 | 0.9 | 0.00 | 0.00 | 0.00 | 82 | 1013.0 |
| 20260510023554 | 52 | 127 | 0.0 | 0.0 | 0.00 | 0.00 | 0.00 | 81 | 1013.0 |
| 20260510023059 | 52 | 127 | 0.0 | 0.9 | 0.00 | 0.00 | 0.00 | 80 | 1013.0 |
| 20260510022554 | 53 | 127 | 0.0 | 0.9 | 0.00 | 0.00 | 0.00 | 79 | 1013.0 |
| 20260510022053 | 53 | 127 | 0.0 | 0.9 | 0.00 | 0.00 | 0.00 | 79 | 1012.9 |
| 20260510021554 | 53 | 127 | 0.0 | 0.9 | 0.00 | 0.00 | 0.00 | 79 | 1012.8 |
| 20260510021053 | 54 | 120 | 0.0 | 0.9 | 0.00 | 0.00 | 0.00 | 77 | 1012.8 |
| 20260510020554 | 54 | 120 | 0.0 | 0.9 | 0.00 | 0.00 | 0.00 | 76 | 1012.7 |
| 20260510020054 | 55 | 120 | 0.0 | 0.9 | 0.00 | 0.00 | 0.00 | 75 | 1012.6 |
| 20260510015555 | 55 | 120 | 0.0 | 0.9 | 0.00 | 0.00 | 0.00 | 74 | 1012.6 |
| 20260510015055 | 56 | 107 | 0.0 | 0.9 | 0.00 | 0.00 | 0.00 | 73 | 1012.5 |
| 20260510014612 | 56 | 107 | 0.0 | 0.0 | 0.00 | 0.00 | 0.00 | 71 | 1012.3 |
| 20260510014052 | 56 | 107 | 0.0 | 0.9 | 0.00 | 0.00 | 0.00 | 71 | 1012.3 |
| 20260510013552 | 57 | 107 | 0.0 | 1.7 | 0.00 | 0.00 | 0.00 | 70 | 1012.2 |
| 20260510013102 | 57 | 107 | 0.0 | 1.7 | 0.00 | 0.00 | 0.00 | 70 | 1012.2 |
| 20260510012555 | 57 | 115 | 0.0 | 1.7 | 0.00 | 0.00 | 0.00 | 70 | 1012.0 |
| 20260510012051 | 57 | 120 | 0.9 | 1.7 | 0.00 | 0.00 | 0.00 | 70 | 1011.9 |
| 20260510011551 | 57 | 113 | 0.0 | 0.9 | 0.00 | 0.00 | 0.00 | 70 | 1012.0 |
| 20260510011050 | 57 | 113 | 0.0 | 1.7 | 0.00 | 0.00 | 0.00 | 70 | 1012.0 |
| 20260510010550 | 58 | 113 | 0.0 | 1.7 | 0.00 | 0.00 | 0.00 | 69 | 1011.9 |
| 20260510010051 | 58 | 98 | 0.0 | 2.6 | 0.00 | 0.00 | 0.00 | 69 | 1011.7 |
| 20260510005551 | 58 | 110 | 0.9 | 2.6 | 0.00 | 0.00 | 0.00 | 69 | 1011.5 |
| 20260510005049 | 58 | 135 | 0.9 | 2.6 | 0.00 | 0.00 | 0.00 | 68 | 1011.5 |
| 20260510004553 | 59 | 129 | 0.0 | 0.9 | 0.00 | 0.00 | 0.00 | 67 | 1011.4 |
| 20260510004049 | 60 | 311 | 0.0 | 0.9 | 0.00 | 0.00 | 0.00 | 65 | 1011.2 |
| 20260510003549 | 60 | 311 | 0.0 | 0.9 | 0.00 | 0.00 | 0.00 | 64 | 1011.1 |
| 20260510003049 | 60 | 338 | 0.0 | 1.7 | 0.00 | 0.00 | 0.00 | 62 | 1011.0 |
| 20260510002548 | 61 | 338 | 0.0 | 1.7 | 0.00 | 0.00 | 0.00 | 62 | 1010.9 |
| 20260510002049 | 61 | 292 | 0.9 | 1.7 | 0.00 | 0.00 | 0.00 | 61 | 1010.8 |
| 20260510001549 | 61 | 300 | 0.9 | 1.7 | 0.00 | 0.00 | 0.00 | 60 | 1010.8 |
| 20260510001050 | 61 | 342 | 0.0 | 2.6 | 0.00 | 0.00 | 0.00 | 60 | 1010.8 |
| 20260510000551 | 62 | 342 | 0.0 | 3.5 | 0.00 | 0.00 | 0.00 | 60 | 1010.7 |
| 20260510000049 | 62 | 1 | 0.0 | 4.3 | 0.00 | 0.00 | 0.00 | 60 | 1010.8 |
| 20260509235549 | 62 | 334 | 1.7 | 4.3 | 0.00 | 0.00 | 0.00 | 59 | 1010.7 |
| 20260509235050 | 62 | 337 | 0.9 | 5.2 | 0.00 | 0.00 | 0.00 | 59 | 1010.8 |
| 20260509234547 | 63 | 332 | 1.7 | 7.8 | 0.00 | 0.00 | 0.00 | 58 | 1010.9 |
| 20260509234048 | 63 | 4 | 2.6 | 7.8 | 0.00 | 0.00 | 0.00 | 57 | 1010.8 |
| 20260509233548 | 63 | 334 | 2.6 | 8.7 | 0.00 | 0.00 | 0.00 | 56 | 1010.8 |
| 20260509233051 | 64 | 318 | 2.6 | 8.7 | 0.00 | 0.00 | 0.00 | 56 | 1010.6 |
| 20260509232547 | 64 | 356 | 1.7 | 6.1 | 0.00 | 0.00 | 0.00 | 56 | 1010.5 |
| 20260509232048 | 64 | 298 | 1.7 | 6.1 | 0.00 | 0.00 | 0.00 | 55 | 1010.6 |
| 20260509231557 | 64 | 346 | 2.6 | 5.2 | 0.00 | 0.00 | 0.00 | 55 | 1010.6 |
| 20260509231046 | 65 | 352 | 1.7 | 7.8 | 0.00 | 0.00 | 0.00 | 54 | 1010.7 |
| 20260509230550 | 65 | 336 | 2.6 | 7.8 | 0.00 | 0.00 | 0.00 | 54 | 1010.5 |
| 20260509230046 | 65 | 229 | 1.7 | 7.0 | 0.00 | 0.00 | 0.00 | 53 | 1010.5 |
| 20260509225545 | 65 | 339 | 2.6 | 7.0 | 0.00 | 0.00 | 0.00 | 52 | 1010.4 |
| 20260509225045 | 65 | 322 | 0.9 | 6.1 | 0.00 | 0.00 | 0.00 | 52 | 1010.4 |
| 20260509224545 | 65 | 315 | 3.5 | 6.1 | 0.00 | 0.00 | 0.00 | 50 | 1010.5 |
| 20260509224045 | 66 | 300 | 0.9 | 9.6 | 0.00 | 0.00 | 0.00 | 50 | 1010.4 |
| 20260509223545 | 66 | 342 | 2.6 | 9.6 | 0.00 | 0.00 | 0.00 | 49 | 1010.4 |
| 20260509223050 | 66 | 21 | 4.3 | 9.6 | 0.00 | 0.00 | 0.00 | 48 | 1010.2 |
| 20260509222549 | 67 | 329 | 5.2 | 9.6 | 0.00 | 0.00 | 0.00 | 47 | 1010.0 |
| 20260509222044 | 67 | 274 | 0.9 | 9.6 | 0.00 | 0.00 | 0.00 | 47 | 1010.1 |
| 20260509221546 | 67 | 261 | 1.7 | 8.7 | 0.00 | 0.00 | 0.00 | 46 | 1010.1 |
| 20260509221043 | 67 | 230 | 1.7 | 8.7 | 0.00 | 0.00 | 0.00 | 46 | 1010.1 |
| 20260509220543 | 67 | 132 | 4.3 | 9.6 | 0.00 | 0.00 | 0.00 | 46 | 1010.1 |
| 20260509220045 | 67 | 311 | 4.3 | 11.3 | 0.00 | 0.00 | 0.00 | 48 | 1010.0 |
| 20260509215547 | 67 | 82 | 4.3 | 14.8 | 0.00 | 0.00 | 0.00 | 49 | 1009.9 |
| 20260509215041 | 67 | 13 | 5.2 | 14.8 | 0.00 | 0.00 | 0.00 | 48 | 1009.8 |
| 20260509214542 | 68 | 41 | 3.5 | 8.7 | 0.00 | 0.00 | 0.00 | 47 | 1010.1 |
| 20260509214043 | 68 | 350 | 4.3 | 10.4 | 0.00 | 0.00 | 0.00 | 47 | 1010.0 |
| 20260509213541 | 68 | 280 | 4.3 | 10.4 | 0.00 | 0.00 | 0.00 | 48 | 1010.1 |
| 20260509213045 | 68 | 215 | 3.5 | 9.6 | 0.00 | 0.00 | 0.00 | 47 | 1010.1 |
| 20260509212540 | 68 | 284 | 3.5 | 9.6 | 0.00 | 0.00 | 0.00 | 46 | 1010.0 |
| 20260509212040 | 68 | 170 | 2.6 | 9.6 | 0.00 | 0.00 | 0.00 | 47 | 1009.8 |
| 20260509211541 | 68 | 129 | 2.6 | 9.6 | 0.00 | 0.00 | 0.00 | 47 | 1009.7 |
| 20260509211040 | 68 | 339 | 4.3 | 9.6 | 0.00 | 0.00 | 0.00 | 46 | 1009.6 |
| 20260509210540 | 69 | 144 | 2.6 | 8.7 | 0.00 | 0.00 | 0.00 | 45 | 1009.6 |
| 20260509210051 | 68 | 216 | 1.7 | 9.6 | 0.00 | 0.00 | 0.00 | 47 | 1009.7 |
| 20260509205539 | 69 | 325 | 4.3 | 10.4 | 0.00 | 0.00 | 0.00 | 45 | 1009.6 |
| 20260509205039 | 69 | 183 | 2.6 | 13.9 | 0.00 | 0.00 | 0.00 | 45 | 1009.6 |
| 20260509204538 | 69 | 135 | 0.9 | 9.6 | 0.00 | 0.00 | 0.00 | 44 | 1009.5 |
| 20260509204039 | 69 | 187 | 1.7 | 8.7 | 0.00 | 0.00 | 0.00 | 44 | 1009.6 |
| 20260509203539 | 68 | 157 | 1.7 | 10.4 | 0.00 | 0.00 | 0.00 | 46 | 1009.4 |
| 20260509203038 | 68 | 218 | 4.3 | 10.4 | 0.00 | 0.00 | 0.00 | 45 | 1009.3 |
| 20260509202540 | 68 | 215 | 2.6 | 11.3 | 0.00 | 0.00 | 0.00 | 46 | 1009.4 |
| 20260509202038 | 68 | 350 | 5.2 | 13.0 | 0.00 | 0.00 | 0.00 | 45 | 1009.5 |
| 20260509201536 | 68 | 297 | 3.5 | 13.0 | 0.00 | 0.00 | 0.00 | 46 | 1009.4 |
| 20260509201035 | 68 | 320 | 2.6 | 10.4 | 0.00 | 0.00 | 0.00 | 47 | 1009.4 |
| 20260509200534 | 68 | 243 | 2.6 | 8.7 | 0.00 | 0.00 | 0.00 | 58 | 1009.4 |
| 20260509200040 | 68 | 127 | 2.6 | 7.0 | 0.00 | 0.00 | 0.00 | 61 | 1009.3 |
| 20260509195538 | 67 | 91 | 0.9 | 3.5 | 0.00 | 0.00 | 0.00 | 60 | 1009.4 |
| 20260509195033 | 68 | 148 | 0.0 | 3.5 | 0.00 | 0.00 | 0.00 | 60 | 1009.6 |
| 20260509194534 | 68 | 183 | 0.0 | 1.7 | 0.00 | 0.00 | 0.00 | 61 | 1009.5 |
| 20260509194035 | 67 | 131 | 0.0 | 6.1 | 0.00 | 0.00 | 0.00 | 63 | 1009.4 |
| 20260509193533 | 66 | 337 | 0.9 | 7.8 | 0.00 | 0.00 | 0.00 | 64 | 1009.4 |
| 20260509193032 | 66 | 103 | 0.9 | 5.2 | 0.00 | 0.00 | 0.00 | 64 | 1009.4 |
| 20260509192531 | 66 | 153 | 0.9 | 5.2 | 0.00 | 0.00 | 0.00 | 63 | 1009.6 |
| 20260509192031 | 66 | 117 | 1.7 | 5.2 | 0.00 | 0.00 | 0.00 | 63 | 1009.5 |
| 20260509191532 | 66 | 138 | 0.9 | 5.2 | 0.00 | 0.00 | 0.00 | 62 | 1009.6 |
| 20260509191035 | 67 | 137 | 1.7 | 6.1 | 0.00 | 0.00 | 0.00 | 60 | 1009.4 |
| 20260509190531 | 67 | 157 | 0.0 | 2.6 | 0.00 | 0.00 | 0.00 | 61 | 1009.6 |
| 20260509190039 | 67 | 62 | 0.0 | 2.6 | 0.00 | 0.00 | 0.00 | 60 | 1009.6 |
| 20260509185534 | 67 | 203 | 0.0 | 6.1 | 0.00 | 0.00 | 0.00 | 61 | 1009.5 |
| 20260509185031 | 67 | 85 | 1.7 | 6.1 | 0.00 | 0.00 | 0.00 | 59 | 1009.3 |
| 20260509184535 | 68 | 168 | 1.7 | 4.3 | 0.00 | 0.00 | 0.00 | 57 | 1009.4 |
| 20260509184029 | 68 | 210 | 0.0 | 1.7 | 0.00 | 0.00 | 0.00 | 61 | 1009.3 |
| 20260509183529 | 67 | 110 | 0.0 | 7.0 | 0.00 | 0.00 | 0.00 | 61 | 1009.4 |
| 20260509183129 | 66 | 145 | 2.6 | 7.0 | 0.00 | 0.00 | 0.00 | 60 | 1009.3 |
| 20260509182529 | 66 | 117 | 1.7 | 6.1 | 0.00 | 0.00 | 0.00 | 61 | 1009.3 |
| 20260509182028 | 66 | 15 | 0.9 | 4.3 | 0.00 | 0.00 | 0.00 | 61 | 1009.6 |
| 20260509181528 | 67 | 57 | 1.7 | 4.3 | 0.00 | 0.00 | 0.00 | 60 | 1009.5 |
| 20260509181028 | 67 | 105 | 0.9 | 7.0 | 0.00 | 0.00 | 0.00 | 58 | 1009.7 |
| 20260509180528 | 68 | 153 | 1.7 | 8.7 | 0.00 | 0.00 | 0.00 | 57 | 1009.8 |
| 20260509180027 | 70 | 111 | 3.5 | 8.7 | 0.00 | 0.00 | 0.00 | 53 | 1009.7 |
| 20260509175525 | 70 | 130 | 0.9 | 7.8 | 0.00 | 0.00 | 0.00 | 55 | 1009.7 |
| 20260509175024 | 70 | 181 | 0.9 | 4.3 | 0.00 | 0.00 | 0.00 | 55 | 1009.9 |
| 20260509174523 | 69 | 113 | 0.9 | 6.1 | 0.00 | 0.00 | 0.00 | 56 | 1010.1 |
| 20260509174022 | 68 | 179 | 2.6 | 7.0 | 0.00 | 0.00 | 0.00 | 57 | 1010.2 |
| 20260509173520 | 67 | 181 | 1.7 | 8.7 | 0.00 | 0.00 | 0.00 | 59 | 1010.1 |
| 20260509173050 | 67 | 162 | 4.3 | 8.7 | 0.00 | 0.00 | 0.00 | 59 | 1010.0 |
| 20260509172519 | 66 | 140 | 2.6 | 7.0 | 0.00 | 0.00 | 0.00 | 62 | 1010.0 |
| 20260509172017 | 66 | 136 | 2.6 | 7.8 | 0.00 | 0.00 | 0.00 | 62 | 1010.1 |
| 20260509171524 | 65 | 158 | 2.6 | 7.8 | 0.00 | 0.00 | 0.00 | 63 | 1010.2 |
| 20260509171014 | 64 | 116 | 2.6 | 7.0 | 0.00 | 0.00 | 0.00 | 64 | 1010.2 |
| 20260509170513 | 64 | 160 | 3.5 | 7.8 | 0.00 | 0.00 | 0.00 | 65 | 1010.4 |
| 20260509170015 | 63 | 207 | 3.5 | 7.8 | 0.00 | 0.00 | 0.00 | 68 | 1010.4 |
| 20260509165512 | 63 | 189 | 3.5 | 7.8 | 0.00 | 0.00 | 0.00 | 66 | 1010.4 |
| 20260509165010 | 63 | 141 | 2.6 | 7.0 | 0.00 | 0.00 | 0.00 | 66 | 1010.5 |
| 20260509164514 | 63 | 212 | 3.5 | 7.0 | 0.00 | 0.00 | 0.00 | 66 | 1010.6 |
| 20260509164012 | 64 | 131 | 2.6 | 7.0 | 0.00 | 0.00 | 0.00 | 66 | 1010.6 |
| 20260509163510 | 63 | 105 | 2.6 | 7.0 | 0.00 | 0.00 | 0.00 | 65 | 1010.8 |
| 20260509163016 | 64 | 206 | 2.6 | 7.8 | 0.00 | 0.00 | 0.00 | 66 | 1010.7 |
| 20260509162509 | 63 | 156 | 2.6 | 9.6 | 0.00 | 0.00 | 0.00 | 65 | 1010.8 |
| 20260509162009 | 63 | 156 | 3.5 | 6.1 | 0.00 | 0.00 | 0.00 | 64 | 1010.8 |
| 20260509161508 | 63 | 147 | 2.6 | 8.7 | 0.00 | 0.00 | 0.00 | 66 | 1010.9 |
| 20260509161010 | 63 | 194 | 3.5 | 9.6 | 0.00 | 0.00 | 0.00 | 67 | 1010.9 |
| 20260509160507 | 63 | 162 | 4.3 | 10.4 | 0.00 | 0.00 | 0.00 | 66 | 1011.0 |
| 20260509160014 | 63 | 86 | 4.3 | 10.4 | 0.00 | 0.00 | 0.00 | 67 | 1010.9 |
| 20260509155506 | 63 | 139 | 2.6 | 7.0 | 0.00 | 0.00 | 0.00 | 66 | 1011.0 |
| 20260509155008 | 63 | 181 | 2.6 | 7.0 | 0.00 | 0.00 | 0.00 | 65 | 1010.9 |
| 20260509154505 | 63 | 191 | 2.6 | 6.1 | 0.00 | 0.00 | 0.00 | 66 | 1010.9 |
| 20260509154005 | 63 | 155 | 2.6 | 6.1 | 0.00 | 0.00 | 0.00 | 66 | 1010.8 |
| 20260509153503 | 63 | 147 | 2.6 | 6.1 | 0.00 | 0.00 | 0.00 | 67 | 1010.9 |
| 20260509153005 | 62 | 127 | 0.9 | 5.2 | 0.00 | 0.00 | 0.00 | 67 | 1010.8 |
| 20260509152502 | 62 | 169 | 2.6 | 4.3 | 0.00 | 0.00 | 0.00 | 68 | 1010.8 |
| 20260509152102 | 61 | 185 | 1.7 | 7.0 | 0.00 | 0.00 | 0.00 | 69 | 1010.8 |
| 20260509151625 | 61 | 145 | 2.6 | 7.0 | 0.00 | 0.00 | 0.00 | 70 | 1010.8 |
| 20260509151058 | 60 | 221 | 0.9 | 4.3 | 0.00 | 0.00 | 0.00 | 72 | 1010.7 |
| 20260509150557 | 60 | 95 | 1.7 | 5.2 | 0.00 | 0.00 | 0.00 | 71 | 1010.6 |
| 20260509150057 | 60 | 130 | 2.6 | 7.0 | 0.00 | 0.00 | 0.00 | 72 | 1010.6 |
| 20260509145556 | 59 | 161 | 3.5 | 7.0 | 0.00 | 0.00 | 0.00 | 72 | 1010.7 |
| 20260509145057 | 59 | 158 | 2.6 | 5.2 | 0.00 | 0.00 | 0.00 | 72 | 1010.8 |
| 20260509144555 | 60 | 165 | 1.7 | 5.2 | 0.00 | 0.00 | 0.00 | 72 | 1010.9 |
| 20260509144055 | 60 | 169 | 0.9 | 5.2 | 0.00 | 0.00 | 0.00 | 73 | 1010.8 |
| 20260509143553 | 59 | 153 | 1.7 | 4.3 | 0.00 | 0.00 | 0.00 | 73 | 1010.7 |
| 20260509143103 | 59 | 155 | 0.9 | 6.1 | 0.00 | 0.00 | 0.00 | 73 | 1010.8 |
| 20260509142553 | 59 | 160 | 1.7 | 6.1 | 0.00 | 0.00 | 0.00 | 72 | 1010.6 |
| 20260509142054 | 59 | 190 | 2.6 | 4.3 | 0.00 | 0.00 | 0.00 | 72 | 1010.7 |
| 20260509141553 | 59 | 130 | 0.9 | 4.3 | 0.00 | 0.00 | 0.00 | 73 | 1010.8 |
| 20260509141052 | 58 | 202 | 0.0 | 3.5 | 0.00 | 0.00 | 0.00 | 75 | 1010.9 |
| 20260509140548 | 58 | 215 | 0.9 | 5.2 | 0.00 | 0.00 | 0.00 | 76 | 1011.0 |
| 20260509140048 | 57 | 144 | 1.7 | 7.0 | 0.00 | 0.00 | 0.00 | 77 | 1011.2 |
| 20260509135552 | 57 | 172 | 2.6 | 7.0 | 0.00 | 0.00 | 0.00 | 76 | 1010.9 |
| 20260509135050 | 57 | 137 | 2.6 | 5.2 | 0.00 | 0.00 | 0.00 | 76 | 1010.8 |
| 20260509134547 | 57 | 153 | 1.7 | 5.2 | 0.00 | 0.00 | 0.00 | 78 | 1010.8 |
| 20260509134047 | 56 | 139 | 1.7 | 7.8 | 0.00 | 0.00 | 0.00 | 78 | 1010.7 |
| 20260509133546 | 57 | 215 | 4.3 | 7.8 | 0.00 | 0.00 | 0.00 | 77 | 1010.7 |
| 20260509133046 | 57 | 166 | 3.5 | 6.1 | 0.00 | 0.00 | 0.00 | 76 | 1010.7 |
| 20260509132544 | 57 | 143 | 2.6 | 5.2 | 0.00 | 0.00 | 0.00 | 75 | 1010.8 |
| 20260509132043 | 57 | 149 | 1.7 | 5.2 | 0.00 | 0.00 | 0.00 | 76 | 1010.8 |
| 20260509131556 | 57 | 210 | 2.6 | 5.2 | 0.00 | 0.00 | 0.00 | 75 | 1010.8 |
| 20260509131042 | 57 | 147 | 1.7 | 4.3 | 0.00 | 0.00 | 0.00 | 75 | 1010.8 |